Time,TemperatureF,DewpointF,PressureIn,WindDirection,WindDirectionDegrees,WindSpeedMPH,WindSpeedGustMPH,Humidity,HourlyPrecipIn,Conditions,Clouds,dailyrainin,SoftwareType,DateUTC
2013-04-17 00:00:00,48.8,47.0,29.93,WNW,292,13.3,29.4,92,0.00,,,0.00,Rainwise IP-100,2013-04-17 04:00:00,
2013-04-17 00:01:00,48.8,47.0,29.93,West,270,21.2,29.8,92,0.00,,,0.00,Rainwise IP-100,2013-04-17 04:01:00,
2013-04-17 00:06:00,49.1,47.0,29.93,WNW,292,10.7,32.4,91,0.00,,,0.00,Rainwise IP-100,2013-04-17 04:06:00,
2013-04-17 00:11:00,49.2,47.0,29.92,WNW,292,5.8,33.3,91,0.00,,,0.00,Rainwise IP-100,2013-04-17 04:11:00,
2013-04-17 00:16:00,49.4,47.0,29.93,West,270,14.2,25.6,91,0.00,,,0.00,Rainwise IP-100,2013-04-17 04:16:00,
2013-04-17 00:21:00,49.5,47.5,29.93,West,270,9.1,35.9,91,0.00,,,0.00,Rainwise IP-100,2013-04-17 04:21:00,
2013-04-17 00:26:00,49.6,47.5,29.93,West,270,12.1,26.8,91,0.00,,,0.00,Rainwise IP-100,2013-04-17 04:26:00,
2013-04-17 00:31:00,49.6,47.5,29.93,West,270,17.0,31.2,91,0.00,,,0.00,Rainwise IP-100,2013-04-17 04:31:00,
2013-04-17 00:36:00,49.6,47.5,29.93,SW,225,19.8,27.0,91,0.00,,,0.00,Rainwise IP-100,2013-04-17 04:36:00,
2013-04-17 00:41:00,49.6,47.5,29.92,West,270,13.5,34.5,91,0.12,,,0.02,Rainwise IP-100,2013-04-17 04:41:00,
2013-04-17 00:46:00,49.7,47.5,29.93,West,270,20.3,32.4,91,0.12,,,0.02,Rainwise IP-100,2013-04-17 04:46:00,
2013-04-17 00:51:00,49.8,47.5,29.93,WSW,247,18.9,34.7,91,0.30,,,0.07,Rainwise IP-100,2013-04-17 04:51:00,
2013-04-17 00:56:00,49.7,47.5,29.92,West,270,18.4,30.1,91,0.30,,,0.07,Rainwise IP-100,2013-04-17 04:56:00,
2013-04-17 01:01:00,49.7,47.5,29.93,West,270,21.2,30.8,91,0.00,,,0.07,Rainwise IP-100,2013-04-17 05:01:00,
2013-04-17 01:06:00,49.4,47.0,29.94,West,270,15.4,32.9,91,0.00,,,0.07,Rainwise IP-100,2013-04-17 05:06:00,
2013-04-17 01:11:00,49.2,47.0,29.93,WNW,292,17.7,30.1,91,0.00,,,0.07,Rainwise IP-100,2013-04-17 05:11:00,
2013-04-17 01:16:00,49.0,47.0,29.93,West,270,13.5,29.6,91,0.00,,,0.07,Rainwise IP-100,2013-04-17 05:16:00,
2013-04-17 01:21:00,48.9,47.0,29.94,West,270,16.8,31.9,92,0.00,,,0.07,Rainwise IP-100,2013-04-17 05:21:00,
2013-04-17 01:26:00,48.9,47.0,29.94,NW,315,22.2,25.4,92,0.00,,,0.07,Rainwise IP-100,2013-04-17 05:26:00,
2013-04-17 01:31:00,48.8,47.0,29.94,WNW,292,16.1,32.4,92,0.00,,,0.07,Rainwise IP-100,2013-04-17 05:31:00,
2013-04-17 01:36:00,48.7,47.0,29.94,West,270,19.6,31.0,92,0.00,,,0.07,Rainwise IP-100,2013-04-17 05:36:00,
2013-04-17 01:41:00,48.8,47.5,29.93,West,270,18.9,28.2,93,0.00,,,0.07,Rainwise IP-100,2013-04-17 05:41:00,
2013-04-17 01:46:00,48.9,47.5,29.95,West,270,18.7,30.5,93,0.00,,,0.07,Rainwise IP-100,2013-04-17 05:46:00,
2013-04-17 01:51:00,49.0,47.5,29.95,West,270,15.6,28.4,93,0.00,,,0.07,Rainwise IP-100,2013-04-17 05:51:00,
2013-04-17 01:56:00,49.3,47.5,29.94,West,270,12.8,29.6,93,0.00,,,0.07,Rainwise IP-100,2013-04-17 05:56:00,
2013-04-17 02:01:00,49.4,47.5,29.94,West,270,12.6,26.1,93,0.00,,,0.07,Rainwise IP-100,2013-04-17 06:01:00,
2013-04-17 02:06:00,49.5,47.5,29.93,West,270,19.4,29.8,93,0.00,,,0.07,Rainwise IP-100,2013-04-17 06:06:00,
2013-04-17 02:11:00,49.5,47.5,29.93,WNW,292,11.4,27.5,93,0.00,,,0.07,Rainwise IP-100,2013-04-17 06:11:00,
2013-04-17 02:16:00,49.5,47.5,29.95,West,270,21.2,24.7,93,0.00,,,0.07,Rainwise IP-100,2013-04-17 06:16:00,
2013-04-17 02:21:00,49.4,47.5,29.95,West,270,16.1,26.8,93,0.00,,,0.07,Rainwise IP-100,2013-04-17 06:21:00,
2013-04-17 02:26:00,49.3,47.5,29.94,WNW,292,19.4,24.9,93,0.00,,,0.07,Rainwise IP-100,2013-04-17 06:26:00,
2013-04-17 02:31:00,49.3,47.5,29.95,West,270,12.8,27.3,93,0.00,,,0.07,Rainwise IP-100,2013-04-17 06:31:00,
2013-04-17 02:36:00,49.3,47.5,29.95,WNW,292,12.1,30.5,93,0.00,,,0.07,Rainwise IP-100,2013-04-17 06:36:00,
2013-04-17 02:41:00,49.3,47.5,29.95,WNW,292,17.5,26.1,93,0.00,,,0.07,Rainwise IP-100,2013-04-17 06:41:00,
2013-04-17 02:46:00,49.4,47.5,29.96,West,270,20.3,26.1,93,0.00,,,0.07,Rainwise IP-100,2013-04-17 06:46:00,
2013-04-17 02:51:00,49.7,47.5,29.97,WNW,292,12.8,23.6,93,0.00,,,0.07,Rainwise IP-100,2013-04-17 06:51:00,
2013-04-17 02:56:00,50.0,47.5,29.97,WNW,292,20.5,25.4,93,0.00,,,0.07,Rainwise IP-100,2013-04-17 06:56:00,
2013-04-17 03:01:00,50.1,47.5,29.97,West,270,17.0,23.8,93,0.00,,,0.07,Rainwise IP-100,2013-04-17 07:01:00,
2013-04-17 03:06:00,50.0,47.5,29.97,WNW,292,11.4,21.5,93,0.00,,,0.07,Rainwise IP-100,2013-04-17 07:06:00,
2013-04-17 03:11:00,49.7,47.5,29.98,WNW,292,11.0,24.2,93,0.00,,,0.07,Rainwise IP-100,2013-04-17 07:11:00,
2013-04-17 03:16:00,49.3,47.5,29.99,West,270,11.2,21.5,93,0.00,,,0.07,Rainwise IP-100,2013-04-17 07:16:00,
2013-04-17 03:21:00,49.1,47.5,29.99,WNW,292,11.0,17.0,94,0.00,,,0.07,Rainwise IP-100,2013-04-17 07:21:00,
2013-04-17 03:26:00,49.2,47.5,29.99,West,270,11.9,20.1,93,0.00,,,0.07,Rainwise IP-100,2013-04-17 07:26:00,
2013-04-17 03:31:00,49.4,47.5,29.99,West,270,7.0,22.6,93,0.00,,,0.07,Rainwise IP-100,2013-04-17 07:31:00,
2013-04-17 03:36:00,49.4,47.0,29.99,WNW,292,18.0,24.9,92,0.00,,,0.07,Rainwise IP-100,2013-04-17 07:36:00,
2013-04-17 03:41:00,49.2,47.0,30.00,NW,315,12.1,21.5,90,0.00,,,0.07,Rainwise IP-100,2013-04-17 07:41:00,
2013-04-17 03:46:00,49.3,46.0,30.00,NW,315,13.5,19.6,89,0.00,,,0.07,Rainwise IP-100,2013-04-17 07:46:00,
2013-04-17 03:51:00,49.2,45.0,30.00,NNW,337,13.3,18.2,87,0.00,,,0.07,Rainwise IP-100,2013-04-17 07:51:00,
2013-04-17 03:56:00,49.0,45.0,30.00,NNW,337,7.5,17.0,86,0.00,,,0.07,Rainwise IP-100,2013-04-17 07:56:00,
2013-04-17 04:01:00,48.8,45.0,30.01,NW,315,8.2,15.4,86,0.00,,,0.07,Rainwise IP-100,2013-04-17 08:01:00,
2013-04-17 04:06:00,48.3,44.0,30.01,North,0,8.9,14.2,86,0.00,,,0.07,Rainwise IP-100,2013-04-17 08:06:00,
2013-04-17 04:11:00,48.1,44.0,30.01,NNW,337,12.4,17.0,86,0.00,,,0.07,Rainwise IP-100,2013-04-17 08:11:00,
2013-04-17 04:16:00,48.0,44.0,30.01,NNW,337,14.5,18.0,86,0.00,,,0.07,Rainwise IP-100,2013-04-17 08:16:00,
2013-04-17 04:21:00,47.8,44.0,30.01,NNE,22,9.8,17.3,85,0.00,,,0.07,Rainwise IP-100,2013-04-17 08:21:00,
2013-04-17 04:26:00,47.7,43.0,30.02,NW,315,19.4,19.4,84,0.00,,,0.07,Rainwise IP-100,2013-04-17 08:26:00,
2013-04-17 04:31:00,47.6,43.0,30.02,NNW,337,14.7,19.4,84,0.00,,,0.07,Rainwise IP-100,2013-04-17 08:31:00,
2013-04-17 04:34:00,47.6,42.0,30.02,NNW,337,17.5,20.3,83,0.00,,,0.07,Rainwise IP-100,2013-04-17 08:34:00,
2013-04-17 04:39:00,47.5,42.0,30.02,NNW,337,13.5,19.1,83,0.00,,,0.07,Rainwise IP-100,2013-04-17 08:39:00,
2013-04-17 04:44:00,47.4,42.0,30.03,NW,315,11.9,17.3,83,0.00,,,0.07,Rainwise IP-100,2013-04-17 08:44:00,
2013-04-17 04:49:00,47.1,42.0,30.03,NNW,337,11.7,16.6,83,0.00,,,0.07,Rainwise IP-100,2013-04-17 08:49:00,
2013-04-17 04:54:00,46.8,42.0,30.03,NNW,337,14.5,16.8,83,0.00,,,0.07,Rainwise IP-100,2013-04-17 08:54:00,
2013-04-17 04:59:00,46.6,41.0,30.04,NNW,337,14.2,19.1,82,0.00,,,0.07,Rainwise IP-100,2013-04-17 08:59:00,
2013-04-17 05:04:00,46.4,40.0,30.03,NW,315,16.1,18.0,82,0.00,,,0.07,Rainwise IP-100,2013-04-17 09:04:00,
2013-04-17 05:09:00,46.3,40.0,30.03,NW,315,14.9,24.0,80,0.00,,,0.07,Rainwise IP-100,2013-04-17 09:09:00,
2013-04-17 05:14:00,46.4,38.0,30.03,NNW,337,16.8,22.6,75,0.00,,,0.07,Rainwise IP-100,2013-04-17 09:14:00,
2013-04-17 05:19:00,46.5,38.0,30.03,NW,315,16.1,23.6,72,0.00,,,0.07,Rainwise IP-100,2013-04-17 09:19:00,
2013-04-17 05:24:00,46.4,37.0,30.03,NNW,337,16.3,24.5,71,0.00,,,0.07,Rainwise IP-100,2013-04-17 09:24:00,
2013-04-17 05:29:00,46.2,37.0,30.05,NNW,337,12.4,20.5,70,0.00,,,0.07,Rainwise IP-100,2013-04-17 09:29:00,
2013-04-17 05:34:00,46.0,37.0,30.05,NW,315,7.9,18.2,70,0.00,,,0.07,Rainwise IP-100,2013-04-17 09:34:00,
2013-04-17 05:39:00,45.7,37.0,30.04,WNW,292,9.8,15.6,70,0.00,,,0.07,Rainwise IP-100,2013-04-17 09:39:00,
2013-04-17 05:44:00,45.4,36.0,30.05,WNW,292,6.5,13.8,70,0.00,,,0.07,Rainwise IP-100,2013-04-17 09:44:00,
2013-04-17 05:49:00,45.0,36.0,30.05,West,270,13.3,15.2,71,0.00,,,0.07,Rainwise IP-100,2013-04-17 09:49:00,
2013-04-17 05:54:00,44.7,37.0,30.05,WNW,292,10.3,13.5,72,0.00,,,0.07,Rainwise IP-100,2013-04-17 09:54:00,
2013-04-17 05:59:00,44.7,36.0,30.06,WNW,292,8.4,15.6,71,0.00,,,0.07,Rainwise IP-100,2013-04-17 09:59:00,
2013-04-17 06:04:00,44.6,36.0,30.06,WNW,292,13.3,13.8,71,0.00,,,0.07,Rainwise IP-100,2013-04-17 10:04:00,
2013-04-17 06:09:00,44.5,36.0,30.06,NW,315,7.9,15.2,71,0.00,,,0.07,Rainwise IP-100,2013-04-17 10:09:00,
2013-04-17 06:14:00,44.5,36.0,30.06,WNW,292,11.7,15.2,71,0.00,,,0.07,Rainwise IP-100,2013-04-17 10:14:00,
2013-04-17 06:19:00,44.6,36.0,30.06,WNW,292,7.0,14.9,70,0.00,,,0.07,Rainwise IP-100,2013-04-17 10:19:00,
2013-04-17 06:24:00,44.7,36.0,30.06,NW,315,14.9,17.0,69,0.00,,,0.07,Rainwise IP-100,2013-04-17 10:24:00,
2013-04-17 06:29:00,44.9,35.0,30.06,WNW,292,14.0,16.8,68,0.00,,,0.07,Rainwise IP-100,2013-04-17 10:29:00,
2013-04-17 06:34:00,45.0,35.0,30.06,WNW,292,13.5,18.7,67,0.00,,,0.07,Rainwise IP-100,2013-04-17 10:34:00,
2013-04-17 06:39:00,45.1,35.0,30.06,WNW,292,14.7,17.3,66,0.00,,,0.07,Rainwise IP-100,2013-04-17 10:39:00,
2013-04-17 06:44:00,45.2,35.0,30.08,NW,315,11.2,15.2,66,0.00,,,0.07,Rainwise IP-100,2013-04-17 10:44:00,
2013-04-17 06:49:00,45.3,35.0,30.08,NW,315,8.4,14.0,66,0.00,,,0.07,Rainwise IP-100,2013-04-17 10:49:00,
2013-04-17 06:54:00,45.5,35.0,30.07,NW,315,11.2,14.9,65,0.00,,,0.07,Rainwise IP-100,2013-04-17 10:54:00,
2013-04-17 06:59:00,45.6,35.0,30.08,North,0,11.2,15.9,65,0.00,,,0.07,Rainwise IP-100,2013-04-17 10:59:00,
2013-04-17 07:04:00,45.8,35.0,30.08,WNW,292,7.9,15.4,64,0.00,,,0.07,Rainwise IP-100,2013-04-17 11:04:00,
2013-04-17 07:09:00,46.0,35.0,30.08,NNW,337,13.8,17.5,63,0.00,,,0.07,Rainwise IP-100,2013-04-17 11:09:00,
2013-04-17 07:14:00,46.2,35.0,30.08,NW,315,12.8,16.6,63,0.00,,,0.07,Rainwise IP-100,2013-04-17 11:14:00,
2013-04-17 07:19:00,46.3,35.0,30.09,NNW,337,9.8,16.6,63,0.00,,,0.07,Rainwise IP-100,2013-04-17 11:19:00,
2013-04-17 07:24:00,46.5,35.0,30.09,NW,315,8.6,18.0,63,0.00,,,0.07,Rainwise IP-100,2013-04-17 11:24:00,
2013-04-17 07:29:00,46.5,35.0,30.09,NW,315,12.6,14.5,63,0.00,,,0.07,Rainwise IP-100,2013-04-17 11:29:00,
2013-04-17 07:34:00,46.7,35.0,30.09,NNW,337,3.5,14.7,64,0.00,,,0.07,Rainwise IP-100,2013-04-17 11:34:00,
2013-04-17 07:39:00,46.9,35.0,30.10,North,0,6.3,16.8,64,0.00,,,0.07,Rainwise IP-100,2013-04-17 11:39:00,
2013-04-17 07:44:00,47.0,35.0,30.10,NW,315,9.6,14.5,64,0.00,,,0.07,Rainwise IP-100,2013-04-17 11:44:00,
2013-04-17 07:49:00,47.1,36.0,30.10,NNW,337,18.4,18.4,65,0.00,,,0.07,Rainwise IP-100,2013-04-17 11:49:00,
2013-04-17 07:54:00,47.0,35.0,30.10,NNW,337,14.0,18.4,64,0.00,,,0.07,Rainwise IP-100,2013-04-17 11:54:00,
2013-04-17 07:59:00,46.9,35.0,30.10,NNW,337,12.6,17.5,63,0.00,,,0.07,Rainwise IP-100,2013-04-17 11:59:00,
2013-04-17 08:04:00,47.0,35.0,30.10,NW,315,10.0,14.9,64,0.00,,,0.07,Rainwise IP-100,2013-04-17 12:04:00,
2013-04-17 08:09:00,47.3,36.0,30.10,NNW,337,14.9,15.6,64,0.00,,,0.07,Rainwise IP-100,2013-04-17 12:09:00,
2013-04-17 08:14:00,47.5,36.0,30.10,NW,315,1.9,14.9,64,0.00,,,0.07,Rainwise IP-100,2013-04-17 12:14:00,
2013-04-17 08:19:00,47.8,37.0,30.10,West,270,0.0,5.8,64,0.00,,,0.07,Rainwise IP-100,2013-04-17 12:19:00,
2013-04-17 08:24:00,48.2,36.0,30.10,NW,315,0.0,9.3,63,0.00,,,0.07,Rainwise IP-100,2013-04-17 12:24:00,
2013-04-17 08:29:00,48.5,37.0,30.11,NNE,22,1.9,13.5,62,0.00,,,0.07,Rainwise IP-100,2013-04-17 12:29:00,
2013-04-17 08:34:00,48.7,36.0,30.11,NNW,337,0.0,6.5,61,0.00,,,0.07,Rainwise IP-100,2013-04-17 12:34:00,
2013-04-17 08:39:00,48.8,36.0,30.11,North,0,1.6,7.0,61,0.00,,,0.07,Rainwise IP-100,2013-04-17 12:39:00,
2013-04-17 08:44:00,48.8,36.0,30.10,NNW,337,1.2,9.3,60,0.00,,,0.07,Rainwise IP-100,2013-04-17 12:44:00,
2013-04-17 08:49:00,48.7,36.0,30.10,NE,45,2.6,10.3,59,0.00,,,0.07,Rainwise IP-100,2013-04-17 12:49:00,
2013-04-17 08:54:00,48.7,36.0,30.10,West,270,1.9,7.2,59,0.00,,,0.07,Rainwise IP-100,2013-04-17 12:54:00,
2013-04-17 08:59:00,48.7,36.0,30.11,NE,45,4.4,4.9,59,0.00,,,0.07,Rainwise IP-100,2013-04-17 12:59:00,
2013-04-17 09:04:00,48.6,36.0,30.12,North,0,1.9,24.5,59,0.00,,,0.07,Rainwise IP-100,2013-04-17 13:04:00,
2013-04-17 09:09:00,48.5,36.0,30.12,WNW,292,4.4,6.1,59,0.00,,,0.07,Rainwise IP-100,2013-04-17 13:09:00,
2013-04-17 09:14:00,48.4,35.0,30.11,SW,225,5.1,26.8,59,0.00,,,0.07,Rainwise IP-100,2013-04-17 13:14:00,
2013-04-17 09:19:00,48.5,36.0,30.10,ESE,112,0.0,21.0,59,0.00,,,0.07,Rainwise IP-100,2013-04-17 13:19:00,
2013-04-17 09:24:00,48.7,36.0,30.11,North,0,1.9,7.2,59,0.00,,,0.07,Rainwise IP-100,2013-04-17 13:24:00,
2013-04-17 09:29:00,48.9,36.0,30.11,NE,45,1.6,11.4,59,0.00,,,0.07,Rainwise IP-100,2013-04-17 13:29:00,
2013-04-17 09:34:00,49.0,35.0,30.12,North,0,4.2,7.5,58,0.00,,,0.07,Rainwise IP-100,2013-04-17 13:34:00,
2013-04-17 09:39:00,49.0,36.0,30.12,WSW,247,1.6,18.9,59,0.00,,,0.07,Rainwise IP-100,2013-04-17 13:39:00,
2013-04-17 09:44:00,49.1,36.0,30.12,North,0,1.4,14.5,60,0.00,,,0.07,Rainwise IP-100,2013-04-17 13:44:00,
2013-04-17 09:49:00,49.2,36.0,30.11,NNW,337,17.7,25.6,60,0.00,,,0.07,Rainwise IP-100,2013-04-17 13:49:00,
2013-04-17 09:54:00,49.2,36.0,30.12,NE,45,2.1,22.4,59,0.00,,,0.07,Rainwise IP-100,2013-04-17 13:54:00,
2013-04-17 09:59:00,49.4,36.0,30.11,NNW,337,15.2,23.3,59,0.00,,,0.07,Rainwise IP-100,2013-04-17 13:59:00,
2013-04-17 10:04:00,49.3,35.0,30.12,NNW,337,18.4,28.4,58,0.00,,,0.07,Rainwise IP-100,2013-04-17 14:04:00,
2013-04-17 10:09:00,49.4,35.0,30.13,NNW,337,4.0,24.7,57,0.00,,,0.07,Rainwise IP-100,2013-04-17 14:09:00,
2013-04-17 10:14:00,49.6,36.0,30.13,North,0,2.8,22.4,57,0.00,,,0.07,Rainwise IP-100,2013-04-17 14:14:00,
2013-04-17 10:19:00,49.9,36.0,30.13,NNW,337,18.4,23.1,57,0.00,,,0.07,Rainwise IP-100,2013-04-17 14:19:00,
2013-04-17 10:24:00,50.0,36.0,30.13,NE,45,0.0,21.0,57,0.00,,,0.07,Rainwise IP-100,2013-04-17 14:24:00,
2013-04-17 10:29:00,50.0,36.0,30.13,NNW,337,10.5,24.9,57,0.00,,,0.07,Rainwise IP-100,2013-04-17 14:29:00,
2013-04-17 10:34:00,50.1,36.0,30.13,WNW,292,0.0,20.5,57,0.00,,,0.07,Rainwise IP-100,2013-04-17 14:34:00,
2013-04-17 10:39:00,50.3,36.0,30.13,West,270,6.3,21.0,57,0.00,,,0.07,Rainwise IP-100,2013-04-17 14:39:00,
2013-04-17 10:44:00,50.7,36.0,30.14,North,0,4.4,18.7,57,0.00,,,0.07,Rainwise IP-100,2013-04-17 14:44:00,
2013-04-17 10:49:00,50.9,36.0,30.14,North,0,11.2,11.2,56,0.00,,,0.07,Rainwise IP-100,2013-04-17 14:49:00,
2013-04-17 10:54:00,51.1,36.0,30.13,NNW,337,1.6,13.8,55,0.00,,,0.07,Rainwise IP-100,2013-04-17 14:54:00,
2013-04-17 10:59:00,51.2,36.0,30.13,North,0,8.4,16.3,55,0.00,,,0.07,Rainwise IP-100,2013-04-17 14:59:00,
2013-04-17 11:04:00,51.2,36.0,30.12,North,0,6.5,21.2,54,0.00,,,0.07,Rainwise IP-100,2013-04-17 15:04:00,
2013-04-17 11:09:00,51.1,36.0,30.12,North,0,1.6,12.1,55,0.00,,,0.07,Rainwise IP-100,2013-04-17 15:09:00,
2013-04-17 11:14:00,51.2,36.0,30.13,NW,315,1.2,14.2,56,0.00,,,0.07,Rainwise IP-100,2013-04-17 15:14:00,
2013-04-17 11:19:00,51.4,36.0,30.13,ENE,67,1.6,8.9,55,0.00,,,0.07,Rainwise IP-100,2013-04-17 15:19:00,
2013-04-17 11:24:00,51.6,36.0,30.13,NNW,337,2.3,15.6,54,0.00,,,0.07,Rainwise IP-100,2013-04-17 15:24:00,
2013-04-17 11:29:00,51.8,36.0,30.13,South,180,1.4,10.0,55,0.00,,,0.07,Rainwise IP-100,2013-04-17 15:29:00,
2013-04-17 11:34:00,52.0,36.0,30.12,North,0,1.6,11.9,54,0.00,,,0.07,Rainwise IP-100,2013-04-17 15:34:00,
2013-04-17 11:39:00,52.0,36.0,30.12,North,0,1.4,15.4,54,0.00,,,0.07,Rainwise IP-100,2013-04-17 15:39:00,
2013-04-17 11:44:00,52.0,36.0,30.11,North,0,12.1,19.8,55,0.00,,,0.07,Rainwise IP-100,2013-04-17 15:44:00,
2013-04-17 11:49:00,52.2,36.0,30.12,NNW,337,2.1,27.5,53,0.00,,,0.07,Rainwise IP-100,2013-04-17 15:49:00,
2013-04-17 11:54:00,52.5,36.0,30.11,North,0,4.0,20.8,52,0.00,,,0.07,Rainwise IP-100,2013-04-17 15:54:00,
2013-04-17 11:59:00,52.6,36.0,30.11,WSW,247,1.4,16.3,53,0.00,,,0.07,Rainwise IP-100,2013-04-17 15:59:00,
2013-04-17 12:04:00,52.4,36.0,30.11,SW,225,0.0,6.3,53,0.00,,,0.07,Rainwise IP-100,2013-04-17 16:04:00,
2013-04-17 12:09:00,52.3,36.0,30.12,NNW,337,0.0,11.9,53,0.00,,,0.07,Rainwise IP-100,2013-04-17 16:09:00,
2013-04-17 12:14:00,52.4,36.0,30.10,North,0,22.2,22.2,53,0.00,,,0.07,Rainwise IP-100,2013-04-17 16:14:00,
2013-04-17 12:19:00,52.7,36.0,30.10,NNW,337,0.0,23.1,52,0.00,,,0.07,Rainwise IP-100,2013-04-17 16:19:00,
2013-04-17 12:24:00,53.0,35.0,30.11,East,90,1.2,20.1,51,0.00,,,0.07,Rainwise IP-100,2013-04-17 16:24:00,
2013-04-17 12:29:00,53.1,36.0,30.11,NNW,337,14.5,22.9,52,0.00,,,0.07,Rainwise IP-100,2013-04-17 16:29:00,
2013-04-17 12:34:00,53.1,35.0,30.11,North,0,2.3,21.5,51,0.00,,,0.07,Rainwise IP-100,2013-04-17 16:34:00,
2013-04-17 12:39:00,53.1,35.0,30.11,NNW,337,8.2,18.2,51,0.00,,,0.07,Rainwise IP-100,2013-04-17 16:39:00,
2013-04-17 12:44:00,53.2,35.0,30.10,NNW,337,17.0,22.6,51,0.00,,,0.07,Rainwise IP-100,2013-04-17 16:44:00,
2013-04-17 12:49:00,53.5,35.0,30.11,South,180,1.6,21.0,49,0.00,,,0.07,Rainwise IP-100,2013-04-17 16:49:00,
2013-04-17 12:54:00,53.7,35.0,30.12,North,0,3.3,8.9,49,0.00,,,0.07,Rainwise IP-100,2013-04-17 16:54:00,
2013-04-17 12:59:00,53.8,36.0,30.12,NNE,22,1.2,5.4,49,0.00,,,0.07,Rainwise IP-100,2013-04-17 16:59:00,
2013-04-17 13:04:00,53.9,35.0,30.12,NE,45,1.9,3.0,48,0.00,,,0.07,Rainwise IP-100,2013-04-17 17:04:00,
2013-04-17 13:09:00,53.9,36.0,30.12,NW,315,2.1,8.2,49,0.00,,,0.07,Rainwise IP-100,2013-04-17 17:09:00,
2013-04-17 13:14:00,53.9,36.0,30.11,NNE,22,1.4,7.0,49,0.00,,,0.07,Rainwise IP-100,2013-04-17 17:14:00,
2013-04-17 13:19:00,53.8,36.0,30.11,ESE,112,1.4,3.7,49,0.00,,,0.07,Rainwise IP-100,2013-04-17 17:19:00,
2013-04-17 13:24:00,53.8,35.0,30.12,SW,225,3.7,7.2,48,0.00,,,0.07,Rainwise IP-100,2013-04-17 17:24:00,
2013-04-17 13:29:00,54.0,35.0,30.12,NW,315,4.0,7.7,48,0.00,,,0.07,Rainwise IP-100,2013-04-17 17:29:00,
2013-04-17 13:34:00,54.2,35.0,30.11,North,0,1.6,9.3,48,0.00,,,0.07,Rainwise IP-100,2013-04-17 17:34:00,
2013-04-17 13:39:00,54.4,36.0,30.11,South,180,2.6,7.9,48,0.00,,,0.07,Rainwise IP-100,2013-04-17 17:39:00,
2013-04-17 13:44:00,54.5,36.0,30.12,SSE,157,0.0,9.8,48,0.00,,,0.07,Rainwise IP-100,2013-04-17 17:44:00,
2013-04-17 13:49:00,54.6,36.0,30.12,SW,225,0.0,9.3,48,0.00,,,0.07,Rainwise IP-100,2013-04-17 17:49:00,
2013-04-17 13:54:00,54.8,36.0,30.11,South,180,0.0,6.5,47,0.00,,,0.07,Rainwise IP-100,2013-04-17 17:54:00,
2013-04-17 13:59:00,54.9,35.0,30.11,NNW,337,14.9,14.9,46,0.00,,,0.07,Rainwise IP-100,2013-04-17 17:59:00,
2013-04-17 14:04:00,54.7,35.0,30.12,North,0,1.2,14.9,46,0.00,,,0.07,Rainwise IP-100,2013-04-17 18:04:00,
2013-04-17 14:09:00,54.5,35.0,30.11,NE,45,0.0,11.0,46,0.00,,,0.07,Rainwise IP-100,2013-04-17 18:09:00,
2013-04-17 14:14:00,54.6,35.0,30.12,North,0,0.0,14.7,46,0.00,,,0.07,Rainwise IP-100,2013-04-17 18:14:00,
2013-04-17 14:19:00,54.9,35.0,30.12,SSE,157,1.4,4.2,45,0.00,,,0.07,Rainwise IP-100,2013-04-17 18:19:00,
2013-04-17 14:24:00,55.1,35.0,30.11,South,180,1.2,8.9,46,0.00,,,0.07,Rainwise IP-100,2013-04-17 18:24:00,
2013-04-17 14:29:00,55.4,35.0,30.11,NNW,337,1.4,6.8,45,0.00,,,0.07,Rainwise IP-100,2013-04-17 18:29:00,
2013-04-17 14:34:00,55.6,35.0,30.11,SSW,202,0.0,11.7,45,0.00,,,0.07,Rainwise IP-100,2013-04-17 18:34:00,
2013-04-17 14:39:00,55.8,35.0,30.11,East,90,1.4,7.5,45,0.00,,,0.07,Rainwise IP-100,2013-04-17 18:39:00,
2013-04-17 14:44:00,56.0,35.0,30.11,East,90,0.0,5.6,45,0.00,,,0.07,Rainwise IP-100,2013-04-17 18:44:00,
2013-04-17 14:49:00,55.9,35.0,30.12,West,270,1.2,5.6,45,0.00,,,0.07,Rainwise IP-100,2013-04-17 18:49:00,
2013-04-17 14:54:00,55.9,36.0,30.12,ESE,112,1.2,4.2,46,0.00,,,0.07,Rainwise IP-100,2013-04-17 18:54:00,
2013-04-17 14:59:00,56.2,35.0,30.12,North,0,1.4,10.3,45,0.00,,,0.07,Rainwise IP-100,2013-04-17 18:59:00,
2013-04-17 15:04:00,56.3,36.0,30.12,North,0,0.0,8.6,45,0.00,,,0.07,Rainwise IP-100,2013-04-17 19:04:00,
2013-04-17 15:09:00,56.3,36.0,30.12,NNW,337,4.9,10.3,45,0.00,,,0.07,Rainwise IP-100,2013-04-17 19:09:00,
2013-04-17 15:14:00,56.3,35.0,30.12,NNW,337,0.0,14.2,44,0.00,,,0.07,Rainwise IP-100,2013-04-17 19:14:00,
2013-04-17 15:19:00,56.1,35.0,30.13,North,0,1.4,11.2,44,0.00,,,0.07,Rainwise IP-100,2013-04-17 19:19:00,
2013-04-17 15:24:00,56.0,33.0,30.13,SE,135,2.3,4.7,43,0.00,,,0.07,Rainwise IP-100,2013-04-17 19:24:00,
2013-04-17 15:29:00,56.1,33.0,30.14,SSW,202,3.5,12.8,43,0.00,,,0.07,Rainwise IP-100,2013-04-17 19:29:00,
2013-04-17 15:34:00,56.3,35.0,30.14,NNE,22,3.7,7.0,43,0.00,,,0.07,Rainwise IP-100,2013-04-17 19:34:00,
2013-04-17 15:39:00,56.5,35.0,30.13,NNW,337,4.0,9.3,43,0.00,,,0.07,Rainwise IP-100,2013-04-17 19:39:00,
2013-04-17 15:44:00,56.4,35.0,30.14,NNW,337,1.4,14.0,43,0.00,,,0.07,Rainwise IP-100,2013-04-17 19:44:00,
2013-04-17 15:49:00,56.4,35.0,30.14,ESE,112,1.4,11.2,43,0.00,,,0.07,Rainwise IP-100,2013-04-17 19:49:00,
2013-04-17 15:54:00,56.4,35.0,30.14,East,90,1.9,5.6,43,0.00,,,0.07,Rainwise IP-100,2013-04-17 19:54:00,
2013-04-17 15:59:00,56.5,35.0,30.14,SE,135,2.1,10.3,43,0.00,,,0.07,Rainwise IP-100,2013-04-17 19:59:00,
2013-04-17 16:04:00,56.6,35.0,30.14,NNE,22,1.6,8.9,43,0.00,,,0.07,Rainwise IP-100,2013-04-17 20:04:00,
2013-04-17 16:09:00,56.5,33.0,30.15,NW,315,1.2,4.4,42,0.00,,,0.07,Rainwise IP-100,2013-04-17 20:09:00,
2013-04-17 16:14:00,56.4,33.0,30.15,NE,45,0.0,6.8,42,0.00,,,0.07,Rainwise IP-100,2013-04-17 20:14:00,
2013-04-17 16:19:00,56.6,33.0,30.15,NE,45,0.0,6.3,42,0.00,,,0.07,Rainwise IP-100,2013-04-17 20:19:00,
2013-04-17 16:24:00,56.7,33.0,30.15,North,0,3.3,10.7,41,0.00,,,0.07,Rainwise IP-100,2013-04-17 20:24:00,
2013-04-17 16:29:00,56.4,33.0,30.15,NE,45,0.0,7.2,41,0.00,,,0.07,Rainwise IP-100,2013-04-17 20:29:00,
2013-04-17 16:34:00,56.1,32.0,30.16,SSW,202,1.4,6.8,41,0.00,,,0.07,Rainwise IP-100,2013-04-17 20:34:00,
2013-04-17 16:39:00,55.9,32.0,30.16,WSW,247,1.6,11.0,41,0.00,,,0.07,Rainwise IP-100,2013-04-17 20:39:00,
2013-04-17 16:44:00,55.7,32.0,30.16,NE,45,1.6,11.0,41,0.00,,,0.07,Rainwise IP-100,2013-04-17 20:44:00,
2013-04-17 16:49:00,55.7,32.0,30.17,SSW,202,1.9,11.7,40,0.00,,,0.07,Rainwise IP-100,2013-04-17 20:49:00,
2013-04-17 16:54:00,55.6,32.0,30.17,NNE,22,0.0,6.8,39,0.00,,,0.07,Rainwise IP-100,2013-04-17 20:54:00,
2013-04-17 16:59:00,55.7,32.0,30.18,West,270,0.0,13.8,39,0.00,,,0.07,Rainwise IP-100,2013-04-17 20:59:00,
2013-04-17 17:04:00,55.8,32.0,30.18,East,90,0.0,10.0,40,0.00,,,0.07,Rainwise IP-100,2013-04-17 21:04:00,
2013-04-17 17:09:00,55.4,32.0,30.18,ENE,67,1.6,6.1,41,0.00,,,0.07,Rainwise IP-100,2013-04-17 21:09:00,
2013-04-17 17:14:00,54.9,33.0,30.18,NNE,22,1.6,10.3,43,0.00,,,0.07,Rainwise IP-100,2013-04-17 21:14:00,
2013-04-17 17:19:00,54.8,32.0,30.18,NW,315,2.6,8.9,42,0.00,,,0.07,Rainwise IP-100,2013-04-17 21:19:00,
2013-04-17 17:24:00,54.9,32.0,30.19,ENE,67,1.9,8.4,42,0.00,,,0.07,Rainwise IP-100,2013-04-17 21:24:00,
2013-04-17 17:29:00,54.8,33.0,30.19,NE,45,2.1,10.0,43,0.00,,,0.07,Rainwise IP-100,2013-04-17 21:29:00,
2013-04-17 17:34:00,54.7,33.0,30.19,NNE,22,3.3,15.9,44,0.00,,,0.07,Rainwise IP-100,2013-04-17 21:34:00,
2013-04-17 17:39:00,54.4,33.0,30.19,North,0,4.0,14.5,45,0.00,,,0.07,Rainwise IP-100,2013-04-17 21:39:00,
2013-04-17 17:44:00,54.2,33.0,30.20,NE,45,2.1,19.4,46,0.00,,,0.07,Rainwise IP-100,2013-04-17 21:44:00,
2013-04-17 17:49:00,54.1,33.0,30.20,NNW,337,12.1,21.9,46,0.00,,,0.07,Rainwise IP-100,2013-04-17 21:49:00,
2013-04-17 17:54:00,54.1,33.0,30.20,NNW,337,8.2,16.8,45,0.00,,,0.07,Rainwise IP-100,2013-04-17 21:54:00,
2013-04-17 17:59:00,53.9,33.0,30.20,SSW,202,1.9,12.6,46,0.00,,,0.07,Rainwise IP-100,2013-04-17 21:59:00,
2013-04-17 18:04:00,53.6,33.0,30.20,NW,315,1.2,9.8,47,0.00,,,0.07,Rainwise IP-100,2013-04-17 22:04:00,
2013-04-17 18:09:00,53.5,33.0,30.19,NNW,337,10.3,18.2,47,0.00,,,0.07,Rainwise IP-100,2013-04-17 22:09:00,
2013-04-17 18:14:00,53.6,33.0,30.20,ENE,67,1.6,16.6,46,0.00,,,0.07,Rainwise IP-100,2013-04-17 22:14:00,
2013-04-17 18:19:00,53.5,33.0,30.20,NE,45,0.0,5.4,46,0.00,,,0.07,Rainwise IP-100,2013-04-17 22:19:00,
2013-04-17 18:24:00,53.4,33.0,30.20,SE,135,1.6,11.0,47,0.00,,,0.07,Rainwise IP-100,2013-04-17 22:24:00,
2013-04-17 18:29:00,53.2,33.0,30.20,NNW,337,10.5,10.5,48,0.00,,,0.07,Rainwise IP-100,2013-04-17 22:29:00,
2013-04-17 18:34:00,52.9,33.0,30.21,NNW,337,5.6,12.6,48,0.00,,,0.07,Rainwise IP-100,2013-04-17 22:34:00,
2013-04-17 18:39:00,52.7,33.0,30.22,NNW,337,9.1,17.5,48,0.00,,,0.07,Rainwise IP-100,2013-04-17 22:39:00,
2013-04-17 18:44:00,52.7,33.0,30.22,NW,315,3.0,16.6,47,0.00,,,0.07,Rainwise IP-100,2013-04-17 22:44:00,
2013-04-17 18:49:00,52.6,33.0,30.23,NNW,337,13.1,14.2,47,0.00,,,0.07,Rainwise IP-100,2013-04-17 22:49:00,
2013-04-17 18:54:00,52.3,32.0,30.24,NNW,337,10.5,16.1,47,0.00,,,0.07,Rainwise IP-100,2013-04-17 22:54:00,
2013-04-17 18:59:00,52.0,32.0,30.24,NNW,337,6.5,18.9,47,0.00,,,0.07,Rainwise IP-100,2013-04-17 22:59:00,
2013-04-17 19:04:00,51.8,33.0,30.24,NNE,22,5.1,19.1,48,0.00,,,0.07,Rainwise IP-100,2013-04-17 23:04:00,
2013-04-17 19:09:00,51.5,33.0,30.24,NW,315,13.3,16.3,48,0.00,,,0.07,Rainwise IP-100,2013-04-17 23:09:00,
2013-04-17 19:14:00,51.5,32.0,30.25,NW,315,10.0,20.8,47,0.00,,,0.07,Rainwise IP-100,2013-04-17 23:14:00,
2013-04-17 19:19:00,51.3,32.0,30.25,NNW,337,7.2,14.9,48,0.00,,,0.07,Rainwise IP-100,2013-04-17 23:19:00,
2013-04-17 19:24:00,50.7,32.0,30.25,NW,315,11.2,14.2,49,0.00,,,0.07,Rainwise IP-100,2013-04-17 23:24:00,
2013-04-17 19:29:00,50.4,32.0,30.25,NNW,337,8.6,15.2,49,0.00,,,0.07,Rainwise IP-100,2013-04-17 23:29:00,
2013-04-17 19:34:00,50.7,31.0,30.26,NW,315,12.6,15.4,47,0.00,,,0.07,Rainwise IP-100,2013-04-17 23:34:00,
2013-04-17 19:39:00,51.3,31.0,30.26,NNW,337,11.9,15.6,45,0.00,,,0.07,Rainwise IP-100,2013-04-17 23:39:00,
2013-04-17 19:44:00,51.4,31.0,30.26,NNW,337,12.1,14.7,44,0.00,,,0.07,Rainwise IP-100,2013-04-17 23:44:00,
2013-04-17 19:49:00,51.1,31.0,30.27,NNW,337,8.4,14.7,45,0.00,,,0.07,Rainwise IP-100,2013-04-17 23:49:00,
2013-04-17 19:54:00,50.7,31.0,30.26,NW,315,10.5,12.6,46,0.00,,,0.07,Rainwise IP-100,2013-04-17 23:54:00,
2013-04-17 19:59:00,50.6,31.0,30.27,NW,315,9.3,13.3,45,0.00,,,0.07,Rainwise IP-100,2013-04-17 23:59:00,
2013-04-17 20:04:00,50.7,29.0,30.28,NNW,337,8.4,16.3,44,0.00,,,0.07,Rainwise IP-100,2013-04-18 00:04:00,
2013-04-17 20:09:00,50.6,29.0,30.28,NNW,337,5.4,14.2,44,0.00,,,0.07,Rainwise IP-100,2013-04-18 00:09:00,
2013-04-17 20:14:00,50.4,31.0,30.28,NW,315,8.9,13.8,45,0.00,,,0.07,Rainwise IP-100,2013-04-18 00:14:00,
2013-04-17 20:19:00,50.1,31.0,30.28,NNW,337,10.7,12.8,46,0.00,,,0.07,Rainwise IP-100,2013-04-18 00:19:00,
2013-04-17 20:24:00,49.8,31.0,30.28,NNW,337,6.1,12.4,47,0.00,,,0.07,Rainwise IP-100,2013-04-18 00:24:00,
2013-04-17 20:29:00,49.4,31.0,30.29,NNW,337,8.6,13.5,48,0.00,,,0.07,Rainwise IP-100,2013-04-18 00:29:00,
2013-04-17 20:34:00,49.2,31.0,30.30,NNW,337,14.5,14.7,48,0.00,,,0.07,Rainwise IP-100,2013-04-18 00:34:00,
2013-04-17 20:39:00,49.4,29.0,30.30,NNW,337,11.9,14.9,47,0.00,,,0.07,Rainwise IP-100,2013-04-18 00:39:00,
2013-04-17 20:44:00,49.6,29.0,30.31,NW,315,7.0,13.3,45,0.00,,,0.07,Rainwise IP-100,2013-04-18 00:44:00,
2013-04-17 20:49:00,49.7,29.0,30.30,NW,315,8.6,12.6,44,0.00,,,0.07,Rainwise IP-100,2013-04-18 00:49:00,
2013-04-17 20:54:00,49.6,29.0,30.31,NNW,337,6.8,11.7,44,0.00,,,0.07,Rainwise IP-100,2013-04-18 00:54:00,
2013-04-17 20:59:00,49.4,28.0,30.32,NW,315,10.0,10.0,44,0.00,,,0.07,Rainwise IP-100,2013-04-18 00:59:00,
2013-04-17 21:04:00,49.3,29.0,30.31,NNW,337,11.4,12.1,45,0.00,,,0.07,Rainwise IP-100,2013-04-18 01:04:00,
2013-04-17 21:09:00,49.1,29.0,30.31,North,0,6.3,12.6,45,0.00,,,0.07,Rainwise IP-100,2013-04-18 01:09:00,
2013-04-17 21:14:00,48.9,29.0,30.31,NW,315,6.8,13.3,45,0.00,,,0.07,Rainwise IP-100,2013-04-18 01:14:00,
2013-04-17 21:19:00,48.7,29.0,30.32,NW,315,7.9,13.3,45,0.00,,,0.07,Rainwise IP-100,2013-04-18 01:19:00,
2013-04-17 21:24:00,48.6,29.0,30.31,NNW,337,5.6,12.8,45,0.00,,,0.07,Rainwise IP-100,2013-04-18 01:24:00,
2013-04-17 21:29:00,48.4,29.0,30.32,NNW,337,7.7,9.6,46,0.00,,,0.07,Rainwise IP-100,2013-04-18 01:29:00,
2013-04-17 21:34:00,48.1,29.0,30.31,NNW,337,10.7,12.4,47,0.00,,,0.07,Rainwise IP-100,2013-04-18 01:34:00,
2013-04-17 21:39:00,48.0,29.0,30.32,NNW,337,7.9,13.1,47,0.00,,,0.07,Rainwise IP-100,2013-04-18 01:39:00,
2013-04-17 21:44:00,48.1,29.0,30.32,NW,315,9.3,14.2,46,0.00,,,0.07,Rainwise IP-100,2013-04-18 01:44:00,
2013-04-17 21:49:00,48.2,29.0,30.33,NNW,337,10.7,13.3,46,0.00,,,0.07,Rainwise IP-100,2013-04-18 01:49:00,
2013-04-17 21:54:00,48.1,29.0,30.33,NNW,337,8.9,11.9,46,0.00,,,0.07,Rainwise IP-100,2013-04-18 01:54:00,
2013-04-17 21:59:00,47.8,29.0,30.33,North,0,8.2,12.1,47,0.00,,,0.07,Rainwise IP-100,2013-04-18 01:59:00,
2013-04-17 22:04:00,47.4,29.0,30.33,NNW,337,4.7,12.6,48,0.00,,,0.07,Rainwise IP-100,2013-04-18 02:04:00,
2013-04-17 22:09:00,46.8,31.0,30.33,NNW,337,3.0,5.8,53,0.00,,,0.07,Rainwise IP-100,2013-04-18 02:09:00,
2013-04-17 22:14:00,45.8,32.0,30.34,NNW,337,0.0,3.5,59,0.00,,,0.07,Rainwise IP-100,2013-04-18 02:14:00,
2013-04-17 22:19:00,45.2,32.0,30.33,NNW,337,4.0,7.2,59,0.00,,,0.07,Rainwise IP-100,2013-04-18 02:19:00,
2013-04-17 22:24:00,45.2,31.0,30.34,NNW,337,4.7,7.7,56,0.00,,,0.07,Rainwise IP-100,2013-04-18 02:24:00,
2013-04-17 22:29:00,45.2,31.0,30.34,NNW,337,4.9,7.5,55,0.00,,,0.07,Rainwise IP-100,2013-04-18 02:29:00,
2013-04-17 22:34:00,45.0,31.0,30.34,North,0,2.3,5.8,56,0.00,,,0.07,Rainwise IP-100,2013-04-18 02:34:00,
2013-04-17 22:39:00,44.6,32.0,30.34,NW,315,4.2,7.0,59,0.00,,,0.07,Rainwise IP-100,2013-04-18 02:39:00,
2013-04-17 22:44:00,44.6,31.0,30.35,NNW,337,2.6,9.6,58,0.00,,,0.07,Rainwise IP-100,2013-04-18 02:44:00,
2013-04-17 22:49:00,44.8,31.0,30.35,NNW,337,0.0,8.2,57,0.00,,,0.07,Rainwise IP-100,2013-04-18 02:49:00,
2013-04-17 22:54:00,44.4,31.0,30.35,North,0,4.9,8.4,59,0.00,,,0.07,Rainwise IP-100,2013-04-18 02:54:00,
2013-04-17 22:59:00,44.0,31.0,30.35,NNW,337,4.9,9.8,59,0.00,,,0.07,Rainwise IP-100,2013-04-18 02:59:00,
2013-04-17 23:04:00,44.1,31.0,30.36,NNW,337,6.3,10.3,57,0.00,,,0.07,Rainwise IP-100,2013-04-18 03:04:00,
2013-04-17 23:09:00,44.3,29.0,30.36,NNW,337,2.6,9.1,56,0.00,,,0.07,Rainwise IP-100,2013-04-18 03:09:00,
2013-04-17 23:14:00,44.3,29.0,30.36,North,0,3.3,9.6,56,0.00,,,0.07,Rainwise IP-100,2013-04-18 03:14:00,
2013-04-17 23:19:00,44.2,29.0,30.36,NNW,337,2.8,9.6,56,0.00,,,0.07,Rainwise IP-100,2013-04-18 03:19:00,
2013-04-17 23:24:00,44.1,29.0,30.36,NNW,337,7.7,10.5,56,0.00,,,0.07,Rainwise IP-100,2013-04-18 03:24:00,
2013-04-17 23:29:00,43.9,29.0,30.36,NNW,337,3.3,7.9,56,0.00,,,0.07,Rainwise IP-100,2013-04-18 03:29:00,
2013-04-17 23:34:00,43.8,29.0,30.36,NNW,337,4.9,7.7,56,0.00,,,0.07,Rainwise IP-100,2013-04-18 03:34:00,
2013-04-17 23:39:00,43.6,31.0,30.37,NW,315,2.6,8.9,57,0.00,,,0.07,Rainwise IP-100,2013-04-18 03:39:00,
2013-04-17 23:45:00,43.4,29.0,30.37,WSW,247,0.0,8.9,57,0.00,,,0.07,Rainwise IP-100,2013-04-18 03:45:00,
2013-04-17 23:50:00,43.4,28.0,30.37,NE,45,1.6,6.1,55,0.00,,,0.07,Rainwise IP-100,2013-04-18 03:50:00,
2013-04-17 23:55:00,43.4,28.0,30.37,NNW,337,1.4,6.3,52,0.00,,,0.07,Rainwise IP-100,2013-04-18 03:55:00,